Flag for U.S.A. Weather past 2 weeks in Spartanburg, South Carolina, U.S.A.

Now
55 °F

Sunny.


Feels Like: 54 °F
Forecast: 43 / 70 °F
Wind: 7 mph from West

Location: Spartanburg Memorial

Current Time: Mar 30, 2015 at 1:10:39 PM

Latest Report: Mar 30, 2015 at 12:35 PM


Visibility: 10 mi

Pressure: 30.10 "Hg

Humidity: 72%

Dew point: 46 °F

Location of SpartanburgLocation

Historic Weather in Spartanburg — Graph

°F

Spartanburg temperature yesterday

Maximum temperature yesterday: 57 °F (at 6:15 PM)
Minimum temperature yesterday: 28 °F (at 7:15 AM)
Average temperature yesterday: 42 °F

Past Weeks' High & Low Weather Summary

 TemperatureHumidityPressure
High84 °F (Mar 17, 4:15 PM)100% (Mar 19, 8:35 AM)30.44 "Hg (Mar 19, 8:35 AM)
Low28 °F (Mar 29, 7:15 AM)7% (Mar 15, 5:15 PM)29.67 "Hg (Mar 27, 5:15 AM)
Average57 °F56%30.07 "Hg
* Reported Mar 15 12:15 PM — Mar 30 12:15 PM, Spartanburg, Weather by CustomWeather, © 2015

Note: Actual official high and low records may vary slightly from our data, if they occured in-between our weather recording intervals... More about our weather records

Advertising

Spartanburg weather history for previous 24 hours

 ConditionsComfort  
Time TempWeatherWind HumidityBarometerVisibility
12:15 PM
Mon, Mar 30
54 °FScattered clouds.5 mph77%30.10 "Hg10 mi
11:35 AM50 °FPartly sunny.6 mph88%30.12 "Hg10 mi
11:15 AM50 °FScattered clouds.9 mph94%30.11 "Hg10 mi
10:35 AM45 °FBroken clouds.7 mph100%30.11 "Hg10 mi
10:15 AM45 °FScattered clouds.6 mph100%30.10 "Hg10 mi
9:35 AM43 °FScattered clouds.5 mph100%30.10 "Hg10 mi
9:15 AM43 °FScattered clouds.7 mph100%30.09 "Hg10 mi
8:35 AM43 °FLight rain. Cloudy.5 mph100%30.04 "Hg10 mi
8:15 AM43 °FRain. Mostly cloudy.9 mph93%30.08 "Hg7 mi
7:35 AM45 °FRain. Mostly cloudy.8 mph66%30.12 "Hg7 mi
7:15 AM48 °FRain. Overcast.9 mph46%30.14 "Hg10 mi
6:35 AM46 °FClear.10 mph46%30.08 "Hg10 mi
6:15 AM45 °FClear.10 mph49%30.07 "Hg10 mi
5:35 AM43 °FClear.8 mph49%30.09 "Hg10 mi
5:15 AM43 °FClear.7 mph46%30.10 "Hg10 mi
4:35 AM43 °FClear.3 mph46%30.12 "Hg10 mi
4:15 AM43 °FClear.No wind46%30.13 "Hg10 mi
3:35 AM45 °FClear.No wind39%30.15 "Hg10 mi
3:15 AM46 °FPassing clouds.3 mph37%30.16 "Hg10 mi
2:35 AM46 °FClear.5 mph34%30.17 "Hg10 mi
2:15 AM46 °FClear.5 mph34%30.18 "Hg10 mi
1:35 AM46 °FPassing clouds.6 mph32%30.19 "Hg10 mi
1:15 AM46 °FPassing clouds.6 mph32%30.19 "Hg10 mi
12:35 AM46 °FPassing clouds.3 mph32%30.21 "Hg10 mi
12:15 AM45 °FClear.3 mph34%30.22 "Hg10 mi
11:35 PM
Sun, Mar 29
45 °FClear.5 mph37%30.24 "Hg10 mi
11:15 PM46 °FClear.No wind34%30.24 "Hg10 mi
10:35 PM46 °FClear.No wind32%30.25 "Hg10 mi
10:15 PM48 °FClear.No wind29%30.25 "Hg10 mi
9:35 PM48 °FClear.3 mph29%30.25 "Hg10 mi
9:15 PM50 °FClear.No wind25%30.25 "Hg10 mi
8:35 PM52 °FSunny.No wind22%30.25 "Hg10 mi
8:15 PM54 °FSunny.5 mph19%30.25 "Hg10 mi
7:15 PM55 °FSunny.5 mph15%30.25 "Hg10 mi
6:35 PM57 °FSunny.7 mph14%30.26 "Hg10 mi
6:15 PM57 °FSunny.6 mph14%30.26 "Hg10 mi
5:15 PM55 °FSunny.5 mph15%30.27 "Hg10 mi
4:35 PM55 °FSunny.5 mph16%30.29 "Hg10 mi
4:15 PM55 °FSunny.No wind18%30.30 "Hg10 mi
3:35 PM54 °FSunny.8 mph21%30.33 "Hg10 mi
3:15 PM55 °FSunny.8 mph19%30.34 "Hg10 mi
2:35 PM52 °FSunny.7 mph19%30.36 "Hg10 mi
2:15 PM52 °FSunny.6 mph24%30.37 "Hg10 mi
1:35 PM50 °FSunny.3 mph24%30.40 "Hg10 mi
1:15 PM48 °FSunny.7 mph23%30.41 "Hg10 mi
Weather by CustomWeather, © 2015

See weather overviewHow to use our weather pages